ONEWEB-0068, 45446

Orbit data source: Space-Track

ONEWEB-0068, 45446 is a payload satellite owned by One Web (UK) in LEO that was launched on Sat, 21 Mar 2020 UTC via a SOYUZ-2-1B launch vehicle from the Tyuratam Missile And Space Complex (TTMTR). Payload-class satellites include a variety of spacecraft equipped with specific instruments for various scientific and technological missions. These include communications satellites like Starlink; space stations such as the ISS; scientific satellites like the Hubble; Earth observation satellites from companies like Planet Labs, Umbra, and HawkEye 360; GPS; miniature CubeSats for education and research; and military/defense satellites.

Loading next visibility...
Identifier
45446, 2020-020Y
Orbit
LEO
Country
Flag of UKUK
Related business
Manufacturer
One Web
Mission
Operational Commercial Communications
Bus & Motor
ARROW, Unknown motor
Mass
148 kg wet, ~140 kg dry
Launch date (UTC)
2020-03-21 (6 years ago)
Launch vehicle
SOYUZ-2-1B
Launch site
Tyuratam Missile And Space Complex (TTMTR)
Object type
Payload
Rocket body
Debris
Shape & HBR
Trap Box + 2 Pan, 6.7 m
Radar Cross Section
3.464 m², Large (>1 m²)

Expand to show TLE details & history
Last TLE update: 20 hours ago

TLE from 20 hours ago
0 ONEWEB-0068
1 45446U 20020Y   25286.63847926  .00000268  00000-0  71961-3 0  9998
2 45446  87.8820  70.1502 0001433  96.8328 263.2963 13.11415204270282
Epoch: 2025-10-13T15:19Z
TLE epoch observation values (Epoch: 2025-10-13T15:19:24.608Z)
Latitude
Longitude
177.85928°
Altitude
1,220.706 km
Speed
7.244 km/s
True Right ascension
04h 40m 36s
True Declination
0° 00' 00"
Sunlit
Object was in full shadow at epoch
Visualization orbit readout
Latitude
Unknown
Longitude
Unknown
Altitude
Unknown
Speed
Unknown
Apparent Right ascension
Unknown
Apparent Declination
Unknown
Sunlit
N/A
Visualization observer readout
Local Sidereal Time
06:15:15
Azimuth
Unknown
Elevation
Unknown
Doppler factor
Unknown
Orbital elements
Apogee altitude
1,215.896 km
Perigee altitude
1,213.72 km
Semi-major axis
7,592.945 km
Eccentricity
0.00014
Inclination
87.882°
RAAN
70.1502°
Arg. of periapsis
96.8328°
True anomaly
263.27999°
Mean anomaly
263.2963°
Eccentric anomaly
263.28815°
Mean motion
3.28041 °/min
Orbital period
109.74 mins
BSTAR
0.00071961
Loading maneuver chart data...
Computing Atmospheric mass density...
Loading historical data...
Loading historical data...
Loading historical data...
Loading historical data...
Loading historical data...
Loading historical data...
Loading historical data...

Documentation

Showing up to 5 results
|